[[{"header":{"parameterUnit":"m.s-1","parameterCategory":1,"la1":30.2992,"la2":30.254,"lo1":-89.0895,"lo2":-89.0443,"dy":0.0025,"dx":0.0025,"nx":19,"ny":19,"refTime":"2026-04-20T21:00:00:Z","depth":0,"parameterNumber":2,"parameterNumberName":"U-component_of_WINDS"},"data":[0,0,0,-3.5044,-3.5046,-3.512,-3.512,-3.5226,-3.5227,0,0,0,0,0,0,0,0,0,0,0,-3.5029,-3.503,-3.5044,-3.5046,-3.512,-3.512,-3.5225,-3.5227,0,0,0,0,0,0,0,0,0,0,0,-3.5028,-3.503,-3.5031,-3.5046,-3.512,-3.512,-3.5225,-3.5165,0,0,0,0,0,0,0,0,0,0,-3.5091,-3.5084,-3.5029,-3.5031,-3.5047,-3.512,-3.512,-3.5162,-3.5169,-3.5197,0,-3.5224,0,-3.5227,-3.5234,-3.5235,0,0,0,-3.504,-3.5079,-3.5093,-3.5031,-3.5047,-3.512,-3.5085,-3.5166,-3.5174,-3.5206,-3.5225,-3.5229,-3.5229,-3.5235,-3.5236,-3.5415,-3.5416,0,0,-3.5036,-3.5046,-3.5087,-3.5098,-3.5088,-3.5083,-3.5087,-3.517,-3.5192,-3.5225,-3.5231,-3.5231,-3.5236,-3.5237,-3.5414,-3.5415,0,0,0,-3.5028,-3.5043,-3.5055,-3.5094,-3.5107,-3.5085,-3.509,-3.5188,-3.5191,-3.5232,-3.5232,-3.5237,-3.5238,-3.5412,-3.5414,-3.5476,0,0,0,-3.5026,-3.5038,-3.5053,-3.506,-3.5105,-3.5148,-3.5106,-3.5185,-3.5194,-3.5231,-3.5237,-3.5239,-3.5411,-3.5413,-3.5472,-3.5504,0,0,0,-3.5022,-3.5038,-3.5051,-3.506,-3.5092,-3.5147,-3.5154,-3.5187,-3.5195,-3.5235,-3.524,-3.541,-3.5413,-3.5468,-3.5497,-3.5553,0,0,0,-3.502,-3.5105,-3.5052,-3.5147,-3.5092,-3.5185,-3.5154,-3.5223,-3.5265,-3.5237,-3.5411,-3.5414,-3.5467,-3.5493,-3.5549,-3.56,-3.5623,0,0,-3.5132,-3.5119,-3.5174,-3.5129,-3.5234,-3.5173,-3.5288,-3.5317,-3.5312,-3.5381,-3.5385,-3.5473,-3.5497,-3.5552,-3.575,-3.5768,0,0,0,-3.5213,-3.5252,-3.5278,-3.5319,-3.5345,-3.5369,-3.538,-3.5391,-3.5449,-3.535,-3.5509,-3.5523,-3.5555,-3.5579,-3.5594,-3.5621,-3.5426,-3.5426,-3.5425,-3.5384,-3.5374,-3.5464,-3.5464,-3.5504,-3.5515,-3.5547,-3.5564,-3.5541,-3.558,-3.5599,-3.572,-3.5749,-3.576,-3.5788,-3.5627,-3.5627,-3.5627,-3.5627,-3.5547,-3.5601,-3.5571,-3.5647,-3.5636,-3.57,-3.5715,-3.5698,-3.5755,-3.5704,-3.5732,-3.5676,-3.5781,-3.5804,-3.5632,-3.5631,-3.5631,-3.563,-3.563,-3.5656,-3.5681,-3.5694,-3.5752,-3.5798,-3.5795,-3.5852,-3.584,-3.5829,-3.5857,-3.5876,-3.5875,-3.5872,-3.5867,-3.5868,-3.5868,-3.5869,-3.5869,-3.5869,-3.5765,-3.5777,-3.5827,-3.5862,-3.5887,-3.5918,-3.5932,-3.5956,-3.5979,-3.5966,-3.5966,-3.594,-3.5793,-3.5756,-3.5876,-3.5874,-3.5874,-3.5873,-3.5873,-3.5931,-3.5892,-3.5969,-3.5994,-3.6034,-3.6081,-3.6066,-3.6116,-3.6134,-3.6163,-3.6132,-3.6026,-3.6011,-3.5998,-3.5967,-3.6134,-3.6134,-3.6134,-3.6134,-3.6023,-3.6015,-3.6091,-3.6132,-3.6171,-3.6165,-3.6252,-3.6264,-3.627,-3.628,-3.6255,-3.6213,-3.6201,-3.6193,-3.6177,-3.6147,-3.6356,-3.6357,-3.6357,-3.6124,-3.6119,-3.6196,-3.6201,-3.6232,-3.6259,-3.634,-3.6388,-3.6387,-3.6366,-3.6288,-3.6279,-3.6212,-3.619,-3.6166,-3.614,-3.6086,0,0]},{"header":{"parameterUnit":"m.s-1","parameterCategory":1,"la1":30.2992,"la2":30.254,"lo1":-89.0895,"lo2":-89.0443,"dy":0.0025,"dx":0.0025,"nx":19,"ny":19,"refTime":"2026-04-20T21:00:00:Z","depth":0,"parameterNumber":3,"parameterNumberName":"V-component_of_WINDS"},"data":[0,0,0,3.8417,3.8418,3.8448,3.8448,3.8491,3.8492,0,0,0,0,0,0,0,0,0,0,0,3.8412,3.8413,3.8417,3.8418,3.8448,3.8448,3.8491,3.8492,0,0,0,0,0,0,0,0,0,0,0,3.8412,3.8413,3.8413,3.8418,3.8448,3.8448,3.8491,3.8466,0,0,0,0,0,0,0,0,0,0,3.8436,3.8436,3.8412,3.8413,3.8418,3.8448,3.8448,3.8465,3.8468,3.848,0,3.8493,0,3.8493,3.8495,3.8495,0,0,0,3.8414,3.8434,3.8438,3.8413,3.8418,3.8447,3.8433,3.8467,3.847,3.8484,3.8494,3.8495,3.8494,3.8495,3.8496,3.8581,3.8582,0,0,3.8413,3.842,3.8436,3.8441,3.8438,3.8432,3.8434,3.8468,3.8479,3.8494,3.8496,3.8495,3.8496,3.8496,3.8581,3.8581,0,0,0,3.841,3.8419,3.8422,3.8439,3.8444,3.8433,3.8435,3.8478,3.8478,3.8497,3.8495,3.8496,3.8497,3.858,3.8581,3.8615,0,0,0,3.8409,3.8417,3.8421,3.8426,3.8444,3.8461,3.8444,3.8476,3.8479,3.8495,3.8496,3.8497,3.8579,3.858,3.8612,3.8629,0,0,0,3.8409,3.8417,3.8423,3.8426,3.844,3.8461,3.8463,3.8476,3.8479,3.8495,3.8497,3.8579,3.858,3.861,3.8625,3.8653,0,0,0,3.841,3.8452,3.8424,3.847,3.8439,3.8482,3.8463,3.8494,3.8513,3.8496,3.8579,3.8581,3.861,3.8623,3.8651,3.8676,3.8687,0,0,3.8467,3.8459,3.8486,3.8461,3.8511,3.8477,3.8532,3.8541,3.8536,3.8566,3.8568,3.8613,3.8625,3.8652,3.8753,3.8762,0,0,0,3.8506,3.8526,3.8537,3.8556,3.8565,3.8574,3.8575,3.8579,3.8604,3.8554,3.8631,3.8638,3.8653,3.8665,3.8673,3.8685,3.8587,3.8587,3.8587,3.8595,3.8587,3.8631,3.8627,3.8645,3.8647,3.866,3.8665,3.8652,3.867,3.8678,3.874,3.8754,3.876,3.8773,3.8693,3.8693,3.8693,3.8693,3.8676,3.8701,3.8684,3.872,3.8712,3.8741,3.8745,3.8734,3.876,3.8733,3.8747,3.8717,3.8771,3.8781,3.8695,3.8695,3.8695,3.8694,3.8694,3.8731,3.8742,3.8747,3.8773,3.8794,3.8789,3.8816,3.8807,3.8799,3.8813,3.882,3.8819,3.8816,3.8817,3.8817,3.8818,3.8818,3.8818,3.8818,3.8786,3.8791,3.8814,3.8829,3.884,3.8853,3.8856,3.8866,3.8875,3.8867,3.8867,3.8851,3.8778,3.8759,3.8821,3.8821,3.882,3.882,3.882,3.8868,3.8849,3.8885,3.8896,3.8913,3.8934,3.8924,3.8946,3.8953,3.8966,3.8948,3.8896,3.8887,3.8881,3.8865,3.895,3.895,3.895,3.895,3.8913,3.8909,3.8944,3.8963,3.898,3.8975,3.9015,3.9018,3.9018,3.9022,3.9009,3.8988,3.8982,3.8976,3.8968,3.8953,3.9059,3.9059,3.9059,3.8963,3.896,3.8996,3.8997,3.901,3.9021,3.9058,3.9079,3.9075,3.9063,3.9025,3.902,3.8986,3.8975,3.896,3.8947,3.8919,0,0]}]]